Time,TemperatureF,DewpointF,PressureIn,WindDirection,WindDirectionDegrees,WindSpeedMPH,WindSpeedGustMPH,Humidity,HourlyPrecipIn,Conditions,Clouds,dailyrainin,SoftwareType,DateUTC
2013-12-13 00:01:00,25.2,25.2,30.41,NNE,27,0.0,0.0,100,0.00,,,0.00,VWS V13.01,2013-12-13 06:01:00,
2013-12-13 00:06:00,25.2,25.2,30.41,NNE,27,0.0,0.0,100,0.00,,,0.00,VWS V13.01,2013-12-13 06:06:00,
2013-12-13 00:11:00,25.0,25.0,30.38,NNE,27,0.0,0.0,100,0.00,,,0.00,VWS V13.01,2013-12-13 06:11:00,
2013-12-13 00:16:00,24.8,24.8,30.38,NE,55,0.0,0.0,100,0.00,,,0.00,VWS V13.01,2013-12-13 06:16:00,
2013-12-13 00:21:00,24.8,24.8,30.38,NE,54,0.0,0.0,100,0.00,,,0.00,VWS V13.01,2013-12-13 06:21:00,
2013-12-13 00:26:00,24.8,24.8,30.38,NE,54,0.0,0.0,100,0.00,,,0.00,VWS V13.01,2013-12-13 06:26:00,
2013-12-13 00:31:00,25.0,25.0,30.38,NE,54,0.0,0.0,100,0.00,,,0.00,VWS V13.01,2013-12-13 06:31:00,
2013-12-13 00:36:00,25.2,25.2,30.38,NE,54,0.0,0.0,100,0.00,,,0.00,VWS V13.01,2013-12-13 06:36:00,
2013-12-13 00:41:00,25.4,25.4,30.38,NE,54,0.0,0.0,100,0.00,,,0.00,VWS V13.01,2013-12-13 06:41:00,
2013-12-13 00:46:00,25.6,25.6,30.38,NE,54,0.0,0.0,100,0.00,,,0.00,VWS V13.01,2013-12-13 06:46:00,
2013-12-13 00:51:00,25.7,25.7,30.38,NE,54,0.0,0.0,100,0.00,,,0.00,VWS V13.01,2013-12-13 06:51:00,
2013-12-13 00:56:00,25.6,25.6,30.38,NE,54,0.0,0.0,100,0.00,,,0.00,VWS V13.01,2013-12-13 06:56:00,
2013-12-13 01:01:00,25.6,25.6,30.38,NE,54,0.0,0.0,100,0.00,,,0.00,VWS V13.01,2013-12-13 07:01:00,
2013-12-13 01:06:00,25.2,25.2,30.38,NE,54,0.0,0.0,100,0.00,,,0.00,VWS V13.01,2013-12-13 07:06:00,
2013-12-13 01:11:00,25.0,25.0,30.35,NE,54,0.0,0.0,100,0.00,,,0.00,VWS V13.01,2013-12-13 07:11:00,
2013-12-13 01:16:00,25.0,25.0,30.35,NE,46,2.7,3.1,100,0.00,,,0.00,VWS V13.01,2013-12-13 07:16:00,
2013-12-13 01:21:00,24.8,24.8,30.35,NNE,32,2.7,2.7,100,0.00,,,0.00,VWS V13.01,2013-12-13 07:21:00,
2013-12-13 01:26:00,24.8,24.8,30.35,NNE,32,0.0,0.0,100,0.00,,,0.00,VWS V13.01,2013-12-13 07:26:00,
2013-12-13 01:31:00,24.8,24.8,30.35,NNE,32,0.0,2.2,100,0.00,,,0.00,VWS V13.01,2013-12-13 07:31:00,
2013-12-13 01:36:00,25.0,25.0,30.35,NNE,32,3.1,3.1,100,0.00,,,0.00,VWS V13.01,2013-12-13 07:36:00,
2013-12-13 01:41:00,25.4,25.4,30.35,NNE,31,2.7,2.7,100,0.00,,,0.00,VWS V13.01,2013-12-13 07:41:00,
2013-12-13 01:46:00,25.6,25.6,30.35,NNE,31,2.2,2.2,100,0.00,,,0.00,VWS V13.01,2013-12-13 07:46:00,
2013-12-13 01:51:00,25.6,25.6,30.35,NNE,31,0.0,0.0,100,0.00,,,0.00,VWS V13.01,2013-12-13 07:51:00,
2013-12-13 01:56:00,25.7,25.7,30.32,NNE,31,0.0,0.0,100,0.00,,,0.00,VWS V13.01,2013-12-13 07:56:00,
2013-12-13 02:01:00,25.7,25.7,30.32,NNE,31,0.0,0.0,100,0.00,,,0.00,VWS V13.01,2013-12-13 08:01:00,
2013-12-13 02:06:00,25.9,25.9,30.32,NNE,31,0.0,0.0,100,0.00,,,0.00,VWS V13.01,2013-12-13 08:06:00,
2013-12-13 02:11:00,26.1,26.1,30.32,NNE,31,0.0,0.0,100,0.00,,,0.00,VWS V13.01,2013-12-13 08:11:00,
2013-12-13 02:16:00,26.3,26.3,30.32,NNE,31,0.0,0.0,100,0.00,,,0.00,VWS V13.01,2013-12-13 08:16:00,
2013-12-13 02:21:00,26.3,26.3,30.32,ENE,65,0.0,0.0,100,0.00,,,0.00,VWS V13.01,2013-12-13 08:21:00,
2013-12-13 02:26:00,26.3,26.3,30.32,ENE,65,0.0,0.0,100,0.00,,,0.00,VWS V13.01,2013-12-13 08:26:00,
2013-12-13 02:31:00,26.3,26.3,30.32,ENE,65,0.0,0.0,100,0.00,,,0.00,VWS V13.01,2013-12-13 08:31:00,
2013-12-13 02:36:00,26.5,26.5,30.32,ENE,65,0.0,0.0,100,0.00,,,0.00,VWS V13.01,2013-12-13 08:36:00,
2013-12-13 02:41:00,26.6,26.6,30.32,ENE,65,0.0,0.0,100,0.00,,,0.00,VWS V13.01,2013-12-13 08:41:00,
2013-12-13 02:46:00,27.0,27.0,30.32,NE,52,0.0,0.0,100,0.00,,,0.00,VWS V13.01,2013-12-13 08:46:00,
2013-12-13 02:50:00,27.2,27.2,30.32,ENE,61,3.1,3.1,100,0.00,,,0.00,VWS V13.01,2013-12-13 08:50:00,
2013-12-13 02:55:00,27.4,27.4,30.32,ENE,61,0.0,0.0,100,0.00,,,0.00,VWS V13.01,2013-12-13 08:55:00,
2013-12-13 03:00:00,27.4,27.4,30.32,ENE,61,0.0,0.0,100,0.00,,,0.00,VWS V13.01,2013-12-13 09:00:00,
2013-12-13 03:05:00,27.5,27.5,30.32,ENE,61,0.0,0.0,100,0.00,,,0.00,VWS V13.01,2013-12-13 09:05:00,
2013-12-13 03:10:00,27.9,27.9,30.29,ENE,61,0.0,0.0,100,0.00,,,0.00,VWS V13.01,2013-12-13 09:10:00,
2013-12-13 03:15:00,28.1,28.1,30.29,ENE,61,0.0,0.0,100,0.00,,,0.00,VWS V13.01,2013-12-13 09:15:00,
2013-12-13 03:20:00,28.3,28.3,30.29,ENE,61,0.0,0.0,100,0.00,,,0.00,VWS V13.01,2013-12-13 09:20:00,
2013-12-13 03:25:00,28.6,28.6,30.29,North,359,0.0,0.0,100,0.00,,,0.00,VWS V13.01,2013-12-13 09:25:00,
2013-12-13 03:30:00,29.0,29.0,30.29,North,9,0.0,0.0,100,0.00,,,0.00,VWS V13.01,2013-12-13 09:30:00,
2013-12-13 03:35:00,29.2,29.2,30.29,North,9,0.0,0.0,100,0.00,,,0.00,VWS V13.01,2013-12-13 09:35:00,
2013-12-13 03:40:00,29.3,29.3,30.29,North,9,0.0,0.0,100,0.00,,,0.00,VWS V13.01,2013-12-13 09:40:00,
2013-12-13 03:45:00,29.5,27.8,30.29,North,9,0.0,0.0,93,0.00,,,0.00,VWS V13.01,2013-12-13 09:45:00,
2013-12-13 03:50:00,29.7,27.7,30.29,ENE,67,2.2,3.6,92,0.00,,,0.00,VWS V13.01,2013-12-13 09:50:00,
2013-12-13 03:55:00,29.9,26.5,30.29,NE,37,3.6,3.6,87,0.00,,,0.00,VWS V13.01,2013-12-13 09:55:00,
2013-12-13 04:01:00,30.4,27.3,30.26,North,352,2.7,3.1,88,0.00,,,0.00,VWS V13.01,2013-12-13 10:01:00,
2013-12-13 04:06:00,30.4,26.5,30.26,North,2,2.7,2.7,85,0.00,,,0.00,VWS V13.01,2013-12-13 10:06:00,
2013-12-13 04:10:00,30.8,26.8,30.26,NNE,13,0.0,0.0,85,0.00,,,0.00,VWS V13.01,2013-12-13 10:10:00,
2013-12-13 04:15:00,31.0,26.1,30.26,NNE,14,0.0,0.0,82,0.00,,,0.00,VWS V13.01,2013-12-13 10:15:00,
2013-12-13 04:20:00,31.3,25.9,30.26,NE,43,2.2,3.1,80,0.00,,,0.00,VWS V13.01,2013-12-13 10:20:00,
2013-12-13 04:25:00,31.7,26.8,30.26,NE,44,0.0,3.1,82,0.00,,,0.00,VWS V13.01,2013-12-13 10:25:00,
2013-12-13 04:30:00,31.5,26.4,30.26,NNE,32,3.1,3.1,81,0.00,,,0.00,VWS V13.01,2013-12-13 10:30:00,
2013-12-13 04:35:00,31.7,26.5,30.26,NNE,27,0.0,0.0,81,0.00,,,0.00,VWS V13.01,2013-12-13 10:35:00,
2013-12-13 04:40:00,31.7,26.5,30.23,NNE,27,0.0,0.0,81,0.00,,,0.00,VWS V13.01,2013-12-13 10:40:00,
2013-12-13 04:45:00,31.9,26.7,30.23,NNE,27,0.0,0.0,81,0.00,,,0.00,VWS V13.01,2013-12-13 10:45:00,
2013-12-13 04:50:00,31.9,26.7,30.23,NNE,27,0.0,0.0,81,0.00,,,0.00,VWS V13.01,2013-12-13 10:50:00,
2013-12-13 04:55:00,32.0,26.6,30.23,ENE,71,3.6,3.6,80,0.00,,,0.00,VWS V13.01,2013-12-13 10:55:00,
2013-12-13 05:01:00,32.2,26.8,30.26,ENE,65,2.2,3.1,80,0.00,,,0.00,VWS V13.01,2013-12-13 11:01:00,
2013-12-13 05:05:00,32.6,27.1,30.26,ENE,69,0.0,0.0,80,0.00,,,0.00,VWS V13.01,2013-12-13 11:05:00,
2013-12-13 05:10:00,32.8,26.7,30.26,ENE,69,0.0,2.2,78,0.00,,,0.00,VWS V13.01,2013-12-13 11:10:00,
2013-12-13 05:15:00,32.9,26.5,30.26,East,87,0.0,2.2,77,0.00,,,0.00,VWS V13.01,2013-12-13 11:15:00,
2013-12-13 05:20:00,33.1,25.8,30.26,NE,50,3.1,3.1,74,0.00,,,0.00,VWS V13.01,2013-12-13 11:20:00,
2013-12-13 05:25:00,33.3,25.9,30.26,NE,50,0.0,2.2,74,0.00,,,0.00,VWS V13.01,2013-12-13 11:25:00,
2013-12-13 05:30:00,33.3,25.9,30.26,NNE,14,0.0,0.0,74,0.00,,,0.00,VWS V13.01,2013-12-13 11:30:00,
2013-12-13 05:35:00,33.3,26.6,30.26,NNE,15,0.0,0.0,76,0.00,,,0.00,VWS V13.01,2013-12-13 11:35:00,
2013-12-13 05:40:00,33.1,27.3,30.26,NNE,29,2.7,2.7,79,0.00,,,0.00,VWS V13.01,2013-12-13 11:40:00,
2013-12-13 05:45:00,33.1,27.3,30.26,NNE,29,2.2,2.7,79,0.00,,,0.00,VWS V13.01,2013-12-13 11:45:00,
2013-12-13 05:50:00,33.1,27.9,30.26,NNE,33,3.1,3.1,81,0.00,,,0.00,VWS V13.01,2013-12-13 11:50:00,
2013-12-13 05:55:00,32.9,27.1,30.26,NNE,28,3.1,3.6,79,0.00,,,0.00,VWS V13.01,2013-12-13 11:55:00,
2013-12-13 06:00:00,32.9,27.1,30.26,NNE,26,0.0,0.0,79,0.00,,,0.00,VWS V13.01,2013-12-13 12:00:00,
2013-12-13 06:05:00,33.1,27.3,30.26,NNE,26,0.0,2.2,79,0.00,,,0.00,VWS V13.01,2013-12-13 12:05:00,
2013-12-13 06:10:00,33.1,27.9,30.26,NNE,24,2.7,2.7,81,0.00,,,0.00,VWS V13.01,2013-12-13 12:10:00,
2013-12-13 06:15:00,32.9,27.1,30.26,NNE,23,2.7,3.1,79,0.00,,,0.00,VWS V13.01,2013-12-13 12:15:00,
2013-12-13 06:20:00,33.1,27.6,30.26,North,358,2.2,2.7,80,0.00,,,0.00,VWS V13.01,2013-12-13 12:20:00,
2013-12-13 06:24:00,33.3,27.5,30.26,NE,35,3.6,3.6,79,0.00,,,0.00,VWS V13.01,2013-12-13 12:24:00,
2013-12-13 06:29:00,33.3,27.5,30.26,NE,39,2.7,3.1,79,0.00,,,0.00,VWS V13.01,2013-12-13 12:29:00,
2013-12-13 06:34:00,33.3,27.2,30.26,NE,53,2.7,3.1,78,0.00,,,0.00,VWS V13.01,2013-12-13 12:34:00,
2013-12-13 06:39:00,33.5,27.7,30.26,NE,49,2.7,2.7,79,0.00,,,0.00,VWS V13.01,2013-12-13 12:39:00,
2013-12-13 06:44:00,33.5,27.7,30.26,NE,49,2.2,2.2,79,0.00,,,0.00,VWS V13.01,2013-12-13 12:44:00,
2013-12-13 06:49:00,33.5,27.7,30.26,NE,53,2.2,2.2,79,0.00,,,0.00,VWS V13.01,2013-12-13 12:49:00,
2013-12-13 06:54:00,33.3,27.5,30.26,NE,39,0.0,2.2,79,0.00,,,0.00,VWS V13.01,2013-12-13 12:54:00,
2013-12-13 06:59:00,33.3,27.8,30.26,NE,41,3.1,3.6,80,0.00,,,0.00,VWS V13.01,2013-12-13 12:59:00,
2013-12-13 07:03:00,33.3,27.5,30.26,NNE,23,4.0,4.9,79,0.00,,,0.00,VWS V13.01,2013-12-13 13:03:00,
2013-12-13 07:08:00,33.3,27.2,30.26,NNE,20,3.6,4.0,78,0.00,,,0.00,VWS V13.01,2013-12-13 13:08:00,
2013-12-13 07:13:00,33.3,28.1,30.26,NE,35,3.6,3.6,81,0.00,,,0.00,VWS V13.01,2013-12-13 13:13:00,
2013-12-13 07:18:00,33.3,28.1,30.26,NE,38,2.7,2.7,81,0.00,,,0.00,VWS V13.01,2013-12-13 13:18:00,
2013-12-13 07:23:00,33.1,29.4,30.26,NE,39,3.6,4.0,86,0.00,,,0.00,VWS V13.01,2013-12-13 13:23:00,
2013-12-13 07:28:00,32.9,29.5,30.26,NNE,28,3.1,3.1,87,0.00,,,0.00,VWS V13.01,2013-12-13 13:28:00,
2013-12-13 07:33:00,32.8,28.8,30.26,NE,38,3.6,3.6,85,0.00,,,0.00,VWS V13.01,2013-12-13 13:33:00,
2013-12-13 07:38:00,32.9,29.5,30.26,NE,35,2.7,2.7,87,0.00,,,0.00,VWS V13.01,2013-12-13 13:38:00,
2013-12-13 07:43:00,32.9,30.1,30.23,NE,34,2.7,3.6,89,0.00,,,0.00,VWS V13.01,2013-12-13 13:43:00,
2013-12-13 07:48:00,32.9,30.3,30.23,NE,36,0.0,3.1,90,0.00,,,0.00,VWS V13.01,2013-12-13 13:48:00,
2013-12-13 07:53:00,32.9,30.6,30.23,NNE,32,2.7,3.1,91,0.00,,,0.00,VWS V13.01,2013-12-13 13:53:00,
2013-12-13 07:58:00,32.9,30.6,30.23,NNE,33,3.1,3.1,91,0.00,,,0.00,VWS V13.01,2013-12-13 13:58:00,
2013-12-13 08:03:00,33.1,30.5,30.23,NE,45,3.1,4.0,90,0.00,,,0.00,VWS V13.01,2013-12-13 14:03:00,
2013-12-13 08:08:00,33.1,30.0,30.23,NE,49,0.0,0.0,88,0.00,,,0.00,VWS V13.01,2013-12-13 14:08:00,
2013-12-13 08:13:00,33.1,30.0,30.23,NE,43,4.0,4.0,88,0.00,,,0.00,VWS V13.01,2013-12-13 14:13:00,
2013-12-13 08:18:00,33.3,30.1,30.23,NE,42,4.0,4.0,88,0.00,,,0.00,VWS V13.01,2013-12-13 14:18:00,
2013-12-13 08:23:00,33.3,29.3,30.23,NE,42,4.9,5.8,85,0.00,,,0.00,VWS V13.01,2013-12-13 14:23:00,
2013-12-13 08:28:00,33.5,29.8,30.23,NE,54,3.6,3.6,86,0.00,,,0.00,VWS V13.01,2013-12-13 14:28:00,
2013-12-13 08:33:00,33.5,29.2,30.23,NE,44,5.8,5.8,84,0.00,,,0.00,VWS V13.01,2013-12-13 14:33:00,
2013-12-13 08:38:00,33.7,28.8,30.23,ENE,57,4.0,5.8,82,0.00,,,0.00,VWS V13.01,2013-12-13 14:38:00,
2013-12-13 08:43:00,33.8,29.2,30.23,NE,37,4.0,4.5,83,0.00,,,0.00,VWS V13.01,2013-12-13 14:43:00,
2013-12-13 08:48:00,33.8,28.6,30.23,NE,37,4.0,4.0,81,0.00,,,0.00,VWS V13.01,2013-12-13 14:48:00,
2013-12-13 08:53:00,33.8,28.6,30.23,NE,55,6.3,6.3,81,0.00,,,0.00,VWS V13.01,2013-12-13 14:53:00,
2013-12-13 08:58:00,34.0,28.5,30.20,NE,40,3.6,5.4,80,0.00,,,0.00,VWS V13.01,2013-12-13 14:58:00,
2013-12-13 09:03:00,34.2,28.4,30.20,NNE,31,3.6,4.0,79,0.00,,,0.00,VWS V13.01,2013-12-13 15:03:00,
2013-12-13 09:08:00,34.4,28.5,30.20,NNE,27,4.0,4.0,79,0.00,,,0.00,VWS V13.01,2013-12-13 15:08:00,
2013-12-13 09:13:00,34.6,28.7,30.23,NNE,33,3.6,4.0,79,0.00,,,0.00,VWS V13.01,2013-12-13 15:13:00,
2013-12-13 09:18:00,34.7,28.6,30.23,NE,55,5.8,5.8,78,0.00,,,0.00,VWS V13.01,2013-12-13 15:18:00,
2013-12-13 09:23:00,34.9,28.8,30.23,NE,52,5.4,7.2,78,0.00,,,0.00,VWS V13.01,2013-12-13 15:23:00,
2013-12-13 09:28:00,34.9,28.5,30.20,NNE,20,3.1,3.6,77,0.00,,,0.00,VWS V13.01,2013-12-13 15:28:00,
2013-12-13 09:33:00,35.1,27.7,30.20,NE,35,6.3,6.3,74,0.00,,,0.00,VWS V13.01,2013-12-13 15:33:00,
2013-12-13 09:38:00,35.3,28.8,30.20,NE,52,4.0,4.0,77,0.00,,,0.00,VWS V13.01,2013-12-13 15:38:00,
2013-12-13 09:43:00,35.3,28.2,30.23,NE,54,4.0,4.0,75,0.00,,,0.00,VWS V13.01,2013-12-13 15:43:00,
2013-12-13 09:48:00,35.5,27.7,30.23,NE,51,4.0,4.9,73,0.00,,,0.00,VWS V13.01,2013-12-13 15:48:00,
2013-12-13 09:53:00,35.6,28.2,30.23,NE,35,4.0,4.9,74,0.00,,,0.00,VWS V13.01,2013-12-13 15:53:00,
2013-12-13 09:58:00,35.6,27.5,30.20,NE,34,5.8,6.3,72,0.00,,,0.00,VWS V13.01,2013-12-13 15:58:00,
2013-12-13 10:03:00,35.8,28.0,30.20,NE,34,4.9,4.9,73,0.04,,,0.04,VWS V13.01,2013-12-13 16:03:00,
2013-12-13 10:08:00,35.8,28.4,30.20,NNE,31,6.3,6.3,74,0.04,,,0.04,VWS V13.01,2013-12-13 16:08:00,
2013-12-13 10:13:00,36.2,28.7,30.17,NE,35,4.9,4.9,74,0.04,,,0.04,VWS V13.01,2013-12-13 16:13:00,
2013-12-13 10:18:00,36.4,28.5,30.17,NE,45,4.0,5.8,73,0.04,,,0.04,VWS V13.01,2013-12-13 16:18:00,
2013-12-13 10:23:00,36.4,28.2,30.17,NE,42,3.6,4.0,72,0.04,,,0.04,VWS V13.01,2013-12-13 16:23:00,
2013-12-13 10:28:00,36.4,27.9,30.20,NNE,28,4.0,4.0,71,0.04,,,0.04,VWS V13.01,2013-12-13 16:28:00,
2013-12-13 10:33:00,36.5,28.0,30.20,NE,51,3.6,4.0,71,0.04,,,0.04,VWS V13.01,2013-12-13 16:33:00,
2013-12-13 10:38:00,36.5,28.0,30.20,NE,49,5.4,6.3,71,0.04,,,0.04,VWS V13.01,2013-12-13 16:38:00,
2013-12-13 10:43:00,36.5,28.0,30.17,NE,55,5.8,6.3,71,0.04,,,0.04,VWS V13.01,2013-12-13 16:43:00,
2013-12-13 10:48:00,36.5,27.7,30.17,NE,52,7.6,7.6,70,0.04,,,0.04,VWS V13.01,2013-12-13 16:48:00,
2013-12-13 10:53:00,36.5,27.7,30.17,NE,42,3.6,4.0,70,0.04,,,0.04,VWS V13.01,2013-12-13 16:53:00,
2013-12-13 10:58:00,36.7,28.9,30.17,NE,38,4.0,4.0,73,0.04,,,0.04,VWS V13.01,2013-12-13 16:58:00,
2013-12-13 11:03:00,36.9,28.0,30.17,ENE,59,2.7,2.7,70,0.00,,,0.04,VWS V13.01,2013-12-13 17:03:00,
2013-12-13 11:08:00,37.1,28.2,30.17,NE,52,4.0,4.5,70,0.00,,,0.04,VWS V13.01,2013-12-13 17:08:00,
2013-12-13 11:13:00,37.4,28.6,30.17,ENE,64,3.1,3.1,70,0.00,,,0.04,VWS V13.01,2013-12-13 17:13:00,
2013-12-13 11:18:00,37.8,28.6,30.17,NNE,28,4.9,4.9,69,0.00,,,0.04,VWS V13.01,2013-12-13 17:18:00,
2013-12-13 11:23:00,38.0,28.7,30.17,East,81,2.7,3.1,69,0.00,,,0.04,VWS V13.01,2013-12-13 17:23:00,
2013-12-13 11:28:00,38.0,28.4,30.17,NE,35,6.3,6.3,68,0.00,,,0.04,VWS V13.01,2013-12-13 17:28:00,
2013-12-13 11:33:00,38.2,28.9,30.17,ESE,111,3.1,3.1,69,0.00,,,0.04,VWS V13.01,2013-12-13 17:33:00,
2013-12-13 11:38:00,38.0,28.4,30.17,ENE,60,4.0,4.0,68,0.00,,,0.04,VWS V13.01,2013-12-13 17:38:00,
2013-12-13 11:43:00,38.0,28.4,30.14,NE,40,4.0,4.0,68,0.00,,,0.04,VWS V13.01,2013-12-13 17:43:00,
2013-12-13 11:48:00,38.0,28.4,30.14,ENE,65,0.0,0.0,68,0.00,,,0.04,VWS V13.01,2013-12-13 17:48:00,
2013-12-13 11:53:00,38.2,28.9,30.14,NE,37,4.9,4.9,69,0.00,,,0.04,VWS V13.01,2013-12-13 17:53:00,
2013-12-13 11:58:00,38.2,28.9,30.14,ENE,61,4.0,4.0,69,0.04,,,0.08,VWS V13.01,2013-12-13 17:58:00,
2013-12-13 12:03:00,38.0,28.7,30.14,East,80,4.9,4.9,69,0.04,,,0.08,VWS V13.01,2013-12-13 18:03:00,
2013-12-13 12:08:00,37.8,28.6,30.14,NE,41,3.6,3.6,69,0.04,,,0.08,VWS V13.01,2013-12-13 18:08:00,
2013-12-13 12:13:00,37.6,28.4,30.11,NNE,18,5.8,5.8,69,0.04,,,0.08,VWS V13.01,2013-12-13 18:13:00,
2013-12-13 12:17:00,37.4,28.9,30.11,NE,38,2.7,3.1,71,0.04,,,0.08,VWS V13.01,2013-12-13 18:17:00,
2013-12-13 12:22:00,37.1,30.2,30.11,NE,46,2.7,3.1,76,0.04,,,0.08,VWS V13.01,2013-12-13 18:22:00,
2013-12-13 12:27:00,36.5,30.7,30.11,NE,40,2.2,2.7,79,0.08,,,0.12,VWS V13.01,2013-12-13 18:27:00,
2013-12-13 12:32:00,36.2,31.2,30.11,North,351,2.2,2.2,82,0.08,,,0.12,VWS V13.01,2013-12-13 18:32:00,
2013-12-13 12:37:00,36.0,31.4,30.11,North,356,0.0,0.0,83,0.08,,,0.12,VWS V13.01,2013-12-13 18:37:00,
2013-12-13 12:42:00,35.8,32.3,30.11,NE,36,4.9,4.9,87,0.08,,,0.12,VWS V13.01,2013-12-13 18:42:00,
2013-12-13 12:47:00,35.6,33.3,30.11,NE,40,4.0,4.9,91,0.12,,,0.16,VWS V13.01,2013-12-13 18:47:00,
2013-12-13 12:52:00,35.6,33.3,30.11,ENE,65,4.0,4.0,91,0.12,,,0.16,VWS V13.01,2013-12-13 18:52:00,
2013-12-13 12:57:00,35.5,33.4,30.11,NE,46,0.0,0.0,92,0.08,,,0.16,VWS V13.01,2013-12-13 18:57:00,
2013-12-13 13:02:00,35.5,33.1,30.11,NE,48,0.0,0.0,91,0.08,,,0.16,VWS V13.01,2013-12-13 19:02:00,
2013-12-13 13:07:00,35.5,33.4,30.11,North,3,2.2,2.7,92,0.12,,,0.20,VWS V13.01,2013-12-13 19:07:00,
2013-12-13 13:12:00,35.5,33.9,30.11,NNE,20,2.7,2.7,94,0.12,,,0.20,VWS V13.01,2013-12-13 19:12:00,
2013-12-13 13:17:00,35.6,34.6,30.11,NE,46,3.1,4.0,96,0.12,,,0.20,VWS V13.01,2013-12-13 19:17:00,
2013-12-13 13:22:00,35.5,34.7,30.11,NNE,19,0.0,3.1,97,0.12,,,0.20,VWS V13.01,2013-12-13 19:22:00,
2013-12-13 13:27:00,35.5,35.0,30.09,NNE,25,4.5,4.9,98,0.08,,,0.24,VWS V13.01,2013-12-13 19:27:00,
2013-12-13 13:32:00,35.5,35.5,30.09,NE,40,5.4,5.4,100,0.12,,,0.24,VWS V13.01,2013-12-13 19:32:00,
2013-12-13 13:37:00,35.5,35.5,30.09,ENE,75,4.5,4.5,100,0.12,,,0.24,VWS V13.01,2013-12-13 19:37:00,
2013-12-13 13:42:00,35.5,35.5,30.06,NE,55,2.2,2.2,100,0.12,,,0.24,VWS V13.01,2013-12-13 19:42:00,
2013-12-13 13:47:00,35.5,35.5,30.06,ENE,57,3.6,3.6,100,0.08,,,0.24,VWS V13.01,2013-12-13 19:47:00,
2013-12-13 13:52:00,35.3,35.3,30.06,NNE,28,4.0,4.0,100,0.12,,,0.28,VWS V13.01,2013-12-13 19:52:00,
2013-12-13 13:57:00,35.3,35.3,30.06,NE,38,2.7,3.1,100,0.12,,,0.28,VWS V13.01,2013-12-13 19:57:00,
2013-12-13 14:02:00,35.5,35.5,30.06,NNE,28,3.6,4.5,100,0.12,,,0.28,VWS V13.01,2013-12-13 20:02:00,
2013-12-13 14:07:00,35.5,35.5,30.06,NE,50,3.1,3.1,100,0.08,,,0.28,VWS V13.01,2013-12-13 20:07:00,
2013-12-13 14:12:00,35.3,35.3,30.06,NE,38,3.1,4.0,100,0.08,,,0.28,VWS V13.01,2013-12-13 20:12:00,
2013-12-13 14:17:00,35.3,35.3,30.06,NE,46,2.2,4.0,100,0.08,,,0.28,VWS V13.01,2013-12-13 20:17:00,
2013-12-13 14:22:00,35.3,35.3,30.06,NE,45,2.7,3.1,100,0.08,,,0.28,VWS V13.01,2013-12-13 20:22:00,
2013-12-13 14:27:00,35.3,35.3,30.06,ENE,57,3.6,4.9,100,0.08,,,0.28,VWS V13.01,2013-12-13 20:27:00,
2013-12-13 14:32:00,35.3,35.3,30.06,ENE,58,5.4,5.4,100,0.08,,,0.31,VWS V13.01,2013-12-13 20:32:00,
2013-12-13 14:37:00,35.3,35.3,30.06,NE,45,3.6,4.0,100,0.08,,,0.31,VWS V13.01,2013-12-13 20:37:00,
2013-12-13 14:42:00,35.3,35.3,30.06,NE,43,5.4,5.4,100,0.08,,,0.31,VWS V13.01,2013-12-13 20:42:00,
2013-12-13 14:47:00,35.1,35.1,30.06,NE,38,3.1,4.9,100,0.08,,,0.35,VWS V13.01,2013-12-13 20:47:00,
2013-12-13 14:52:00,35.1,35.1,30.06,NNE,28,5.4,5.8,100,0.08,,,0.35,VWS V13.01,2013-12-13 20:52:00,
2013-12-13 14:57:00,35.1,35.1,30.03,NNE,30,5.4,5.8,100,0.08,,,0.35,VWS V13.01,2013-12-13 20:57:00,
2013-12-13 15:02:00,35.1,35.1,30.03,NNE,16,5.8,5.8,100,0.08,,,0.35,VWS V13.01,2013-12-13 21:02:00,
2013-12-13 15:07:00,34.9,34.9,30.03,NNE,29,5.8,8.1,100,0.08,,,0.35,VWS V13.01,2013-12-13 21:07:00,
2013-12-13 15:12:00,34.9,34.9,30.00,NNE,14,6.3,8.1,100,0.08,,,0.35,VWS V13.01,2013-12-13 21:12:00,
2013-12-13 15:17:00,34.9,34.9,30.00,NNE,17,4.9,5.8,100,0.08,,,0.35,VWS V13.01,2013-12-13 21:17:00,
2013-12-13 15:22:00,34.9,34.9,30.00,NNE,33,5.4,5.4,100,0.08,,,0.35,VWS V13.01,2013-12-13 21:22:00,
2013-12-13 15:27:00,35.1,35.1,30.00,NE,40,2.7,3.6,100,0.08,,,0.35,VWS V13.01,2013-12-13 21:27:00,
2013-12-13 15:32:00,35.1,35.1,30.00,NE,42,4.0,4.0,100,0.04,,,0.35,VWS V13.01,2013-12-13 21:32:00,
2013-12-13 15:37:00,35.3,35.3,30.00,North,4,2.7,2.7,100,0.08,,,0.39,VWS V13.01,2013-12-13 21:37:00,
2013-12-13 15:42:00,35.3,35.3,30.03,NE,37,4.5,5.4,100,0.08,,,0.39,VWS V13.01,2013-12-13 21:42:00,
2013-12-13 15:47:00,35.3,35.3,30.03,ENE,68,6.3,6.3,100,0.08,,,0.39,VWS V13.01,2013-12-13 21:47:00,
2013-12-13 15:52:00,35.1,35.1,30.03,NE,46,7.2,7.6,100,0.04,,,0.39,VWS V13.01,2013-12-13 21:52:00,
2013-12-13 15:57:00,35.1,35.1,30.00,NE,47,5.8,5.8,100,0.04,,,0.39,VWS V13.01,2013-12-13 21:57:00,
2013-12-13 16:02:00,35.1,35.1,30.00,NE,38,3.1,3.6,100,0.08,,,0.43,VWS V13.01,2013-12-13 22:02:00,
2013-12-13 16:07:00,35.1,35.1,30.00,NE,53,5.8,5.8,100,0.08,,,0.43,VWS V13.01,2013-12-13 22:07:00,
2013-12-13 16:12:00,35.1,35.1,30.00,NE,55,5.8,5.8,100,0.08,,,0.43,VWS V13.01,2013-12-13 22:12:00,
2013-12-13 16:17:00,35.1,35.1,30.00,NNE,30,4.0,4.9,100,0.08,,,0.43,VWS V13.01,2013-12-13 22:17:00,
2013-12-13 16:22:00,35.1,35.1,30.00,ENE,58,4.0,5.4,100,0.08,,,0.43,VWS V13.01,2013-12-13 22:22:00,
2013-12-13 16:27:00,34.9,34.9,30.00,NE,39,7.6,7.6,100,0.08,,,0.43,VWS V13.01,2013-12-13 22:27:00,
2013-12-13 16:32:00,35.1,35.1,30.00,NE,37,5.4,5.4,100,0.08,,,0.43,VWS V13.01,2013-12-13 22:32:00,
2013-12-13 16:37:00,35.1,35.1,30.00,NNE,14,5.4,6.3,100,0.04,,,0.43,VWS V13.01,2013-12-13 22:37:00,
2013-12-13 16:42:00,35.1,35.1,30.00,NE,51,4.0,4.5,100,0.04,,,0.43,VWS V13.01,2013-12-13 22:42:00,
2013-12-13 16:47:00,35.1,35.1,30.00,NNE,16,4.9,4.9,100,0.08,,,0.47,VWS V13.01,2013-12-13 22:47:00,
2013-12-13 16:52:00,35.1,35.1,30.00,NE,47,3.1,3.1,100,0.08,,,0.47,VWS V13.01,2013-12-13 22:52:00,
2013-12-13 16:57:00,35.1,35.1,29.97,NE,38,4.9,5.4,100,0.08,,,0.47,VWS V13.01,2013-12-13 22:57:00,
2013-12-13 17:02:00,35.1,35.1,29.97,NE,42,4.0,4.0,100,0.04,,,0.47,VWS V13.01,2013-12-13 23:02:00,
2013-12-13 17:07:00,35.1,35.1,29.97,NNE,31,4.9,5.8,100,0.04,,,0.47,VWS V13.01,2013-12-13 23:07:00,
2013-12-13 17:12:00,35.1,35.1,29.97,NE,46,3.6,3.6,100,0.04,,,0.47,VWS V13.01,2013-12-13 23:12:00,
2013-12-13 17:17:00,35.1,35.1,29.97,ENE,62,4.9,4.9,100,0.04,,,0.47,VWS V13.01,2013-12-13 23:17:00,
2013-12-13 17:22:00,35.1,35.1,29.97,NNE,28,6.3,6.3,100,0.04,,,0.47,VWS V13.01,2013-12-13 23:22:00,
2013-12-13 17:27:00,35.1,35.1,29.97,NE,55,5.8,5.8,100,0.04,,,0.47,VWS V13.01,2013-12-13 23:27:00,
2013-12-13 17:32:00,35.1,35.1,29.97,NE,40,6.3,6.3,100,0.04,,,0.47,VWS V13.01,2013-12-13 23:32:00,
2013-12-13 17:37:00,35.1,35.1,29.97,NE,47,4.0,5.8,100,0.04,,,0.47,VWS V13.01,2013-12-13 23:37:00,
2013-12-13 17:42:00,35.1,35.1,29.94,ENE,70,5.4,5.4,100,0.04,,,0.47,VWS V13.01,2013-12-13 23:42:00,
2013-12-13 17:47:00,35.1,35.1,29.94,NNE,25,4.9,5.4,100,0.00,,,0.47,VWS V13.01,2013-12-13 23:47:00,
2013-12-13 17:52:00,35.1,35.1,29.94,NE,53,4.0,4.0,100,0.00,,,0.47,VWS V13.01,2013-12-13 23:52:00,
2013-12-13 17:57:00,35.1,35.1,29.94,NE,55,3.6,4.0,100,0.00,,,0.47,VWS V13.01,2013-12-13 23:57:00,
2013-12-13 18:02:00,35.1,35.1,29.94,NNE,33,4.0,4.0,100,0.00,,,0.47,VWS V13.01,2013-12-14 00:02:00,
2013-12-13 18:07:00,35.1,35.1,29.94,NE,36,3.1,3.1,100,0.00,,,0.47,VWS V13.01,2013-12-14 00:07:00,
2013-12-13 18:11:00,35.1,35.1,29.97,NNE,24,4.9,5.4,100,0.04,,,0.51,VWS V13.01,2013-12-14 00:11:00,
2013-12-13 18:16:00,35.1,35.1,29.97,NE,47,3.1,4.0,100,0.04,,,0.51,VWS V13.01,2013-12-14 00:16:00,
2013-12-13 18:21:00,35.1,35.1,29.97,NE,54,2.7,3.6,100,0.04,,,0.51,VWS V13.01,2013-12-14 00:21:00,
2013-12-13 18:26:00,35.1,35.1,29.97,NNE,25,4.0,5.4,100,0.08,,,0.55,VWS V13.01,2013-12-14 00:26:00,
2013-12-13 18:31:00,35.1,35.1,29.97,NE,37,4.5,5.8,100,0.08,,,0.55,VWS V13.01,2013-12-14 00:31:00,
2013-12-13 18:36:00,35.1,35.1,29.97,NE,41,2.7,4.0,100,0.08,,,0.55,VWS V13.01,2013-12-14 00:36:00,
2013-12-13 18:41:00,34.9,34.9,29.94,NE,41,2.7,3.6,100,0.12,,,0.59,VWS V13.01,2013-12-14 00:41:00,
2013-12-13 18:46:00,34.9,34.9,29.94,NE,45,4.0,4.5,100,0.12,,,0.59,VWS V13.01,2013-12-14 00:46:00,
2013-12-13 18:51:00,34.9,34.9,29.94,ENE,58,0.0,3.1,100,0.12,,,0.59,VWS V13.01,2013-12-14 00:51:00,
2013-12-13 18:56:00,34.9,34.9,29.97,NE,36,2.7,4.0,100,0.12,,,0.59,VWS V13.01,2013-12-14 00:56:00,
2013-12-13 19:01:00,34.9,34.9,29.97,NE,34,3.1,3.6,100,0.12,,,0.59,VWS V13.01,2013-12-14 01:01:00,
2013-12-13 19:06:00,34.9,34.9,29.97,ENE,57,4.9,5.4,100,0.12,,,0.59,VWS V13.01,2013-12-14 01:06:00,
2013-12-13 19:11:00,34.9,34.9,29.94,ENE,61,3.1,3.6,100,0.16,,,0.63,VWS V13.01,2013-12-14 01:11:00,
2013-12-13 19:13:00,34.9,34.9,29.94,ENE,64,6.3,6.3,100,0.12,,,0.63,VWS V13.01,2013-12-14 01:13:00,
2013-12-13 19:18:00,34.9,34.9,29.94,ENE,64,3.6,4.0,100,0.12,,,0.63,VWS V13.01,2013-12-14 01:18:00,
2013-12-13 19:23:00,34.9,34.9,29.94,East,93,5.8,5.8,100,0.16,,,0.67,VWS V13.01,2013-12-14 01:23:00,
2013-12-13 19:28:00,34.9,34.9,29.97,ENE,58,4.9,5.4,100,0.12,,,0.67,VWS V13.01,2013-12-14 01:28:00,
2013-12-13 19:33:00,34.9,34.9,29.97,NE,46,3.1,3.6,100,0.12,,,0.67,VWS V13.01,2013-12-14 01:33:00,
2013-12-13 19:38:00,34.9,34.9,29.97,NE,40,3.1,5.4,100,0.12,,,0.67,VWS V13.01,2013-12-14 01:38:00,
2013-12-13 19:43:00,34.9,34.9,29.97,NE,43,3.6,3.6,100,0.08,,,0.67,VWS V13.01,2013-12-14 01:43:00,
2013-12-13 19:48:00,34.9,34.9,29.97,NNE,29,4.0,4.0,100,0.08,,,0.67,VWS V13.01,2013-12-14 01:48:00,
2013-12-13 19:53:00,34.7,34.7,29.97,NNE,33,4.0,6.3,100,0.16,,,0.75,VWS V13.01,2013-12-14 01:53:00,
2013-12-13 19:58:00,34.7,34.7,29.94,NE,46,5.4,5.8,100,0.16,,,0.75,VWS V13.01,2013-12-14 01:58:00,
2013-12-13 20:03:00,34.7,34.7,29.94,NE,44,4.0,5.8,100,0.16,,,0.75,VWS V13.01,2013-12-14 02:03:00,
2013-12-13 20:08:00,34.7,34.7,29.94,NE,34,4.0,4.9,100,0.16,,,0.75,VWS V13.01,2013-12-14 02:08:00,
2013-12-13 20:13:00,34.7,34.7,29.94,NE,38,4.0,4.9,100,0.12,,,0.75,VWS V13.01,2013-12-14 02:13:00,
2013-12-13 20:18:00,34.7,34.7,29.94,ENE,60,4.9,5.8,100,0.12,,,0.75,VWS V13.01,2013-12-14 02:18:00,
2013-12-13 20:23:00,34.7,34.7,29.94,NNE,26,3.6,3.6,100,0.12,,,0.79,VWS V13.01,2013-12-14 02:23:00,
2013-12-13 20:28:00,34.7,34.7,29.94,ENE,62,4.0,4.0,100,0.12,,,0.79,VWS V13.01,2013-12-14 02:28:00,
2013-12-13 20:33:00,34.6,34.6,29.94,ENE,61,4.0,4.9,100,0.12,,,0.79,VWS V13.01,2013-12-14 02:33:00,
2013-12-13 20:38:00,34.7,34.7,29.94,ENE,67,4.0,4.0,100,0.12,,,0.79,VWS V13.01,2013-12-14 02:38:00,
2013-12-13 20:43:00,34.7,34.7,29.94,ENE,62,4.0,4.9,100,0.12,,,0.79,VWS V13.01,2013-12-14 02:43:00,
2013-12-13 20:48:00,34.7,34.7,29.94,NE,46,4.9,4.9,100,0.12,,,0.79,VWS V13.01,2013-12-14 02:48:00,
2013-12-13 20:53:00,34.7,34.7,29.94,ENE,67,4.9,4.9,100,0.04,,,0.79,VWS V13.01,2013-12-14 02:53:00,
2013-12-13 20:58:00,34.7,34.7,29.94,ENE,58,6.3,6.3,100,0.04,,,0.79,VWS V13.01,2013-12-14 02:58:00,
2013-12-13 21:03:00,34.7,34.7,29.94,ENE,60,6.3,8.3,100,0.04,,,0.79,VWS V13.01,2013-12-14 03:03:00,
2013-12-13 21:08:00,34.7,34.7,29.94,NNE,33,6.3,6.3,100,0.04,,,0.79,VWS V13.01,2013-12-14 03:08:00,
2013-12-13 21:13:00,34.7,34.7,29.91,ENE,74,5.4,5.4,100,0.04,,,0.79,VWS V13.01,2013-12-14 03:13:00,
2013-12-13 21:18:00,34.7,34.7,29.91,NE,54,3.1,3.1,100,0.08,,,0.83,VWS V13.01,2013-12-14 03:18:00,
2013-12-13 21:23:00,34.6,34.6,29.91,NE,41,6.3,6.3,100,0.04,,,0.83,VWS V13.01,2013-12-14 03:23:00,
2013-12-13 21:28:00,34.7,34.7,29.91,ENE,61,5.8,5.8,100,0.04,,,0.83,VWS V13.01,2013-12-14 03:28:00,
2013-12-13 21:33:00,34.7,34.7,29.91,NE,44,3.6,3.6,100,0.04,,,0.83,VWS V13.01,2013-12-14 03:33:00,
2013-12-13 21:38:00,34.7,34.7,29.91,NE,53,4.9,4.9,100,0.04,,,0.83,VWS V13.01,2013-12-14 03:38:00,
2013-12-13 21:43:00,34.7,34.7,29.91,ENE,67,2.7,5.4,100,0.04,,,0.83,VWS V13.01,2013-12-14 03:43:00,
2013-12-13 21:48:00,34.7,34.7,29.91,NNE,29,3.6,4.9,100,0.04,,,0.83,VWS V13.01,2013-12-14 03:48:00,
2013-12-13 21:53:00,34.7,34.7,29.91,NNE,21,4.0,4.0,100,0.04,,,0.83,VWS V13.01,2013-12-14 03:53:00,
2013-12-13 21:58:00,34.7,34.7,29.94,NNE,23,4.0,4.9,100,0.04,,,0.83,VWS V13.01,2013-12-14 03:58:00,
2013-12-13 22:03:00,34.9,34.9,29.94,NE,44,3.1,5.4,100,0.04,,,0.83,VWS V13.01,2013-12-14 04:03:00,
2013-12-13 22:08:00,34.9,34.9,29.94,NE,45,5.4,5.4,100,0.04,,,0.83,VWS V13.01,2013-12-14 04:08:00,
2013-12-13 22:13:00,34.9,34.9,29.91,NE,43,3.6,3.6,100,0.04,,,0.83,VWS V13.01,2013-12-14 04:13:00,
2013-12-13 22:18:00,34.9,34.9,29.91,NE,35,4.0,4.0,100,0.00,,,0.83,VWS V13.01,2013-12-14 04:18:00,
2013-12-13 22:22:00,34.9,34.9,29.91,NNE,26,6.7,6.7,100,0.00,,,0.83,VWS V13.01,2013-12-14 04:22:00,
2013-12-13 22:27:00,34.9,34.9,29.91,NE,54,3.6,3.6,100,0.00,,,0.83,VWS V13.01,2013-12-14 04:27:00,
2013-12-13 22:32:00,34.9,34.9,29.91,NE,35,3.6,4.0,100,0.00,,,0.83,VWS V13.01,2013-12-14 04:32:00,
2013-12-13 22:37:00,34.9,34.9,29.91,North,358,3.1,3.6,100,0.00,,,0.83,VWS V13.01,2013-12-14 04:37:00,
2013-12-13 22:42:00,34.9,34.9,29.91,North,2,0.0,3.1,100,0.00,,,0.83,VWS V13.01,2013-12-14 04:42:00,
2013-12-13 22:47:00,34.9,34.9,29.91,NE,38,3.1,3.6,100,0.00,,,0.83,VWS V13.01,2013-12-14 04:47:00,
2013-12-13 22:52:00,34.9,34.9,29.91,NE,51,2.2,2.7,100,0.00,,,0.83,VWS V13.01,2013-12-14 04:52:00,
2013-12-13 22:57:00,34.9,34.9,29.94,NE,39,3.1,3.6,100,0.00,,,0.83,VWS V13.01,2013-12-14 04:57:00,
2013-12-13 23:01:00,35.1,35.1,29.94,NNE,32,5.4,5.4,100,0.00,,,0.83,VWS V13.01,2013-12-14 05:01:00,
2013-12-13 23:06:00,35.1,35.1,29.94,NNE,31,5.8,6.3,100,0.00,,,0.83,VWS V13.01,2013-12-14 05:06:00,
2013-12-13 23:11:00,35.1,35.1,29.91,NNE,33,4.9,4.9,100,0.04,,,0.87,VWS V13.01,2013-12-14 05:11:00,
2013-12-13 23:16:00,35.1,35.1,29.91,NNE,15,3.6,5.4,100,0.04,,,0.87,VWS V13.01,2013-12-14 05:16:00,
2013-12-13 23:21:00,35.1,35.1,29.91,NE,39,0.0,3.1,100,0.04,,,0.87,VWS V13.01,2013-12-14 05:21:00,
2013-12-13 23:26:00,35.1,35.1,29.91,NNE,20,4.9,5.4,100,0.04,,,0.87,VWS V13.01,2013-12-14 05:26:00,
2013-12-13 23:31:00,35.1,35.1,29.91,NE,40,4.9,6.3,100,0.04,,,0.87,VWS V13.01,2013-12-14 05:31:00,
2013-12-13 23:36:00,35.1,35.1,29.91,NNE,13,2.2,3.6,100,0.04,,,0.87,VWS V13.01,2013-12-14 05:36:00,
2013-12-13 23:41:00,35.1,35.1,29.91,NE,48,3.1,3.6,100,0.04,,,0.87,VWS V13.01,2013-12-14 05:41:00,
2013-12-13 23:46:00,35.1,35.1,29.91,ENE,65,3.1,3.6,100,0.04,,,0.87,VWS V13.01,2013-12-14 05:46:00,
2013-12-13 23:51:00,35.1,35.1,29.91,NE,48,3.1,4.9,100,0.04,,,0.87,VWS V13.01,2013-12-14 05:51:00,
2013-12-13 23:56:00,35.1,35.1,29.91,NE,50,4.0,4.0,100,0.04,,,0.87,VWS V13.01,2013-12-14 05:56:00,